| time (UTC) | temp F | wind direction | speed MPH | gust MPH | rain 1hr in | rain 24hr in | rain mn in | humidity % | barometer mb |
| 20260904111545 | 74 | 48 | 2.0 | 3.0 | 0.00 | 0.03 | 0.00 | 88 | 1008.9 |
| 20260904110042 | 74 | 49 | 1.0 | 2.0 | 0.00 | 0.03 | 0.00 | 88 | 1008.9 |
| 20260904104540 | 74 | 49 | 1.0 | 3.0 | 0.00 | 0.03 | 0.00 | 88 | 1008.9 |
| 20260904103050 | 74 | 40 | 2.0 | 3.0 | 0.00 | 0.03 | 0.00 | 88 | 1008.9 |
| 20260904101539 | 75 | 41 | 2.0 | 4.0 | 0.00 | 0.03 | 0.00 | 87 | 1009.0 |
| 20260904100035 | 75 | 77 | 1.0 | 4.0 | 0.00 | 0.03 | 0.00 | 86 | 1008.8 |
| 20260904094532 | 76 | 161 | 1.0 | 2.0 | 0.00 | 0.03 | 0.00 | 85 | 1008.7 |
| 20260904093031 | 76 | 161 | 0.0 | 3.0 | 0.00 | 0.03 | 0.00 | 85 | 1008.6 |
| 20260904091530 | 76 | 161 | 2.0 | 5.0 | 0.00 | 0.03 | 0.00 | 85 | 1008.4 |
| 20260904090029 | 76 | 161 | 2.0 | 3.0 | 0.00 | 0.03 | 0.00 | 85 | 1008.4 |
| 20260904084527 | 77 | 161 | 1.0 | 2.0 | 0.00 | 0.03 | 0.00 | 84 | 1008.4 |
| 20260904083034 | 77 | 161 | 0.0 | 3.0 | 0.00 | 0.03 | 0.00 | 84 | 1008.3 |
| 20260904081526 | 77 | 160 | 1.0 | 3.0 | 0.00 | 0.03 | 0.00 | 84 | 1008.2 |
| 20260904080026 | 77 | 146 | 2.0 | 4.0 | 0.00 | 0.03 | 0.00 | 84 | 1008.2 |
| 20260904074543 | 77 | 147 | 0.0 | 2.0 | 0.00 | 0.03 | 0.00 | 83 | 1008.2 |
| 20260904073033 | 77 | 147 | 0.0 | 4.0 | 0.00 | 0.03 | 0.00 | 83 | 1008.3 |
| 20260904071523 | 77 | 150 | 0.0 | 2.0 | 0.00 | 0.03 | 0.00 | 83 | 1008.3 |
| 20260904070023 | 78 | 150 | 0.0 | 2.0 | 0.00 | 0.03 | 0.00 | 82 | 1008.4 |
| 20260904064520 | 78 | 150 | 1.0 | 3.0 | 0.00 | 0.03 | 0.00 | 82 | 1008.3 |
| 20260904063020 | 78 | 151 | 2.0 | 5.0 | 0.00 | 0.03 | 0.00 | 81 | 1008.4 |
| 20260904061519 | 78 | 154 | 2.0 | 6.0 | 0.00 | 0.03 | 0.00 | 81 | 1008.3 |
| 20260904060024 | 78 | 157 | 2.0 | 6.0 | 0.00 | 0.03 | 0.00 | 81 | 1008.4 |
| 20260904054517 | 78 | 159 | 3.0 | 6.0 | 0.00 | 0.03 | 0.00 | 80 | 1008.4 |
| 20260904053020 | 78 | 159 | 2.0 | 5.0 | 0.00 | 0.03 | 0.00 | 80 | 1008.3 |
| 20260904051513 | 79 | 146 | 2.0 | 6.0 | 0.00 | 0.03 | 0.00 | 79 | 1008.3 |
| 20260904050010 | 79 | 149 | 2.0 | 5.0 | 0.00 | 0.03 | 0.00 | 79 | 1008.2 |
| 20260904044510 | 79 | 153 | 2.0 | 8.0 | 0.00 | 0.03 | 0.03 | 78 | 1008.2 |
| 20260904043015 | 79 | 152 | 2.0 | 6.0 | 0.00 | 0.03 | 0.03 | 78 | 1008.1 |
| 20260904041509 | 80 | 149 | 2.0 | 6.0 | 0.00 | 0.03 | 0.03 | 77 | 1008.1 |
| 20260904040009 | 80 | 166 | 4.0 | 8.0 | 0.00 | 0.03 | 0.03 | 76 | 1008.1 |
| 20260904034508 | 80 | 163 | 2.0 | 7.0 | 0.00 | 0.03 | 0.03 | 75 | 1008.2 |
| 20260904033007 | 81 | 152 | 2.0 | 7.0 | 0.00 | 0.03 | 0.03 | 74 | 1008.1 |
| 20260904031507 | 81 | 163 | 3.0 | 9.0 | 0.00 | 0.03 | 0.03 | 73 | 1008.2 |
| 20260904030007 | 81 | 175 | 4.0 | 9.0 | 0.00 | 0.03 | 0.03 | 73 | 1008.3 |
| 20260904024506 | 81 | 194 | 4.0 | 9.0 | 0.00 | 0.03 | 0.03 | 74 | 1008.2 |
| 20260904023006 | 81 | 101 | 1.0 | 3.0 | 0.00 | 0.03 | 0.03 | 72 | 1008.2 |
| 20260904021512 | 81 | 142 | 1.0 | 7.0 | 0.00 | 0.03 | 0.03 | 72 | 1008.1 |
| 20260904020006 | 82 | 157 | 2.0 | 7.0 | 0.00 | 0.03 | 0.03 | 71 | 1008.0 |
| 20260904014504 | 82 | 167 | 4.0 | 8.0 | 0.00 | 0.03 | 0.03 | 70 | 1007.9 |
| 20260904013004 | 83 | 167 | 4.0 | 9.0 | 0.00 | 0.03 | 0.03 | 69 | 1007.8 |
| 20260904011503 | 83 | 171 | 5.0 | 9.0 | 0.00 | 0.03 | 0.03 | 68 | 1007.7 |
| 20260904010005 | 83 | 142 | 5.0 | 9.0 | 0.00 | 0.03 | 0.03 | 68 | 1007.5 |
| 20260904004502 | 84 | 171 | 4.0 | 9.0 | 0.00 | 0.03 | 0.03 | 67 | 1007.5 |
| 20260904003002 | 84 | 174 | 5.0 | 12.0 | 0.00 | 0.03 | 0.03 | 65 | 1007.5 |
| 20260904001501 | 85 | 170 | 4.0 | 9.0 | 0.00 | 0.03 | 0.03 | 64 | 1007.5 |
| 20260904000003 | 85 | 184 | 8.0 | 12.0 | 0.00 | 0.03 | 0.03 | 63 | 1007.6 |
| 20260903234601 | 86 | 140 | 7.0 | 16.0 | 0.00 | 0.03 | 0.03 | 62 | 1007.6 |
| 20260903233113 | 86 | 175 | 7.0 | 17.0 | 0.00 | 0.03 | 0.03 | 61 | 1007.5 |
| 20260903231600 | 87 | 157 | 8.0 | 15.0 | 0.00 | 0.03 | 0.03 | 61 | 1007.2 |
| 20260903230059 | 87 | 183 | 10.0 | 20.0 | 0.00 | 0.03 | 0.03 | 59 | 1006.8 |
| 20260903224559 | 87 | 169 | 10.0 | 17.0 | 0.00 | 0.03 | 0.03 | 59 | 1006.9 |
| 20260903223113 | 87 | 142 | 9.0 | 16.0 | 0.00 | 0.03 | 0.03 | 58 | 1006.9 |
| 20260903221556 | 87 | 168 | 9.0 | 14.0 | 0.00 | 0.03 | 0.03 | 58 | 1007.0 |
| 20260903220155 | 87 | 159 | 11.0 | 22.0 | 0.00 | 0.03 | 0.03 | 58 | 1007.0 |
| 20260903214553 | 87 | 163 | 9.0 | 17.0 | 0.00 | 0.03 | 0.03 | 59 | 1007.0 |
| 20260903213052 | 86 | 158 | 9.0 | 17.0 | 0.00 | 0.03 | 0.03 | 59 | 1007.2 |
| 20260903211555 | 86 | 169 | 9.0 | 20.0 | 0.00 | 0.03 | 0.03 | 59 | 1007.4 |
| 20260903210058 | 85 | 169 | 8.0 | 17.0 | 0.00 | 0.03 | 0.03 | 62 | 1007.2 |
| 20260903204549 | 85 | 166 | 7.0 | 14.0 | 0.00 | 0.03 | 0.03 | 59 | 1008.0 |
| 20260903203055 | 85 | 169 | 6.0 | 17.0 | 0.00 | 0.03 | 0.03 | 59 | 1007.9 |
| 20260903201548 | 86 | 171 | 9.0 | 16.0 | 0.00 | 0.03 | 0.03 | 58 | 1007.9 |
| 20260903200047 | 87 | 134 | 10.0 | 16.0 | 0.00 | 0.03 | 0.03 | 58 | 1007.9 |
| 20260903194547 | 86 | 168 | 10.0 | 18.0 | 0.00 | 0.03 | 0.03 | 59 | 1007.9 |
| 20260903193042 | 86 | 163 | 7.0 | 14.0 | 0.00 | 0.03 | 0.03 | 62 | 1008.2 |
| 20260903191540 | 85 | 151 | 5.0 | 9.0 | 0.01 | 0.03 | 0.03 | 68 | 1007.9 |
| 20260903190037 | 84 | 158 | 2.0 | 10.0 | 0.03 | 0.03 | 0.03 | 72 | 1008.2 |
| 20260903184533 | 81 | 26 | 2.0 | 5.0 | 0.03 | 0.03 | 0.03 | 79 | 1008.7 |
| 20260903183031 | 79 | 36 | 2.0 | 5.0 | 0.03 | 0.03 | 0.03 | 79 | 1008.7 |
| 20260903181532 | 78 | 111 | 1.0 | 3.0 | 0.02 | 0.02 | 0.02 | 78 | 1008.9 |
| 20260903180037 | 79 | 126 | 0.0 | 7.0 | 0.00 | 0.00 | 0.00 | 73 | 1008.8 |
| 20260903174528 | 80 | 164 | 4.0 | 6.0 | 0.00 | 0.00 | 0.00 | 69 | 1008.8 |
| 20260903173028 | 80 | 96 | 3.0 | 8.0 | 0.00 | 0.00 | 0.00 | 69 | 1008.8 |
| 20260903171535 | 81 | 165 | 4.0 | 10.0 | 0.00 | 0.00 | 0.00 | 68 | 1009.2 |
| 20260903170036 | 79 | 123 | 3.0 | 9.0 | 0.00 | 0.00 | 0.00 | 73 | 1009.5 |
| 20260903164524 | 78 | 167 | 3.0 | 5.0 | 0.00 | 0.00 | 0.00 | 73 | 1009.6 |
| 20260903163026 | 79 | 167 | 3.0 | 10.0 | 0.00 | 0.00 | 0.00 | 71 | 1009.5 |
| 20260903161522 | 79 | 156 | 4.0 | 9.0 | 0.00 | 0.00 | 0.00 | 70 | 1009.5 |
| 20260903160022 | 80 | 145 | 3.0 | 8.0 | 0.00 | 0.00 | 0.00 | 67 | 1009.5 |
| 20260903154521 | 80 | 139 | 3.0 | 7.0 | 0.00 | 0.00 | 0.00 | 66 | 1009.4 |
| 20260903153018 | 80 | 156 | 1.0 | 5.0 | 0.00 | 0.00 | 0.00 | 66 | 1009.4 |
| 20260903151517 | 79 | 170 | 3.0 | 6.0 | 0.00 | 0.00 | 0.00 | 68 | 1009.6 |
| 20260903150034 | 80 | 94 | 1.0 | 4.0 | 0.00 | 0.00 | 0.00 | 68 | 1009.3 |
| 20260903144523 | 80 | 132 | 2.0 | 5.0 | 0.00 | 0.00 | 0.00 | 66 | 1009.3 |
| 20260903143023 | 79 | 198 | 2.0 | 4.0 | 0.00 | 0.00 | 0.00 | 68 | 1009.3 |
| 20260903141508 | 78 | 152 | 2.0 | 7.0 | 0.00 | 0.00 | 0.00 | 69 | 1009.4 |
| 20260903140013 | 78 | 131 | 1.0 | 7.0 | 0.00 | 0.00 | 0.00 | 69 | 1009.4 |
| 20260903134501 | 78 | 159 | 2.0 | 7.0 | 0.00 | 0.00 | 0.00 | 70 | 1009.6 |
| 20260903133106 | 76 | 107 | 1.0 | 3.0 | 0.00 | 0.00 | 0.00 | 74 | 1009.6 |
| 20260903131555 | 76 | 163 | 3.0 | 6.0 | 0.00 | 0.00 | 0.00 | 74 | 1009.7 |
| 20260903124557 | 76 | 165 | 9.0 | 13.0 | 0.00 | 0.00 | 0.00 | 74 | 1009.4 |
| 20260903123051 | 76 | 187 | 3.0 | 8.0 | 0.00 | 0.00 | 0.00 | 74 | 1008.7 |
| 20260903121549 | 76 | 190 | 4.0 | 9.0 | 0.00 | 0.00 | 0.00 | 74 | 1008.6 |
| 20260903120052 | 76 | 154 | 3.0 | 6.0 | 0.00 | 0.00 | 0.00 | 76 | 1008.9 |
| 20260903114543 | 76 | 165 | 3.0 | 10.0 | 0.00 | 0.00 | 0.00 | 79 | 1009.6 |
| 20260903113050 | 75 | 163 | 4.0 | 7.0 | 0.00 | 0.00 | 0.00 | 82 | 1009.6 |